| time (UTC) | temp F | wind direction | speed knots | gust knots | rain 1hr in | rain 24hr in | rain mn in | humidity % | barometer mb |
| 20260505094349 | 62 | 192 | 2.6 | 4.3 | 0.10 | 0.00 | 0.01 | 69 | 1002.0 |
| 20260505093850 | 62 | 201 | 2.6 | 4.3 | 0.00 | 0.00 | 0.00 | 68 | 1002.0 |
| 20260505093349 | 62 | 201 | 2.6 | 5.2 | 0.00 | 0.00 | 0.00 | 67 | 1002.0 |
| 20260505092849 | 62 | 199 | 3.5 | 5.2 | 0.00 | 0.00 | 0.00 | 67 | 1002.0 |
| 20260505092349 | 63 | 183 | 1.7 | 3.5 | 0.00 | 0.00 | 0.00 | 67 | 1002.0 |
| 20260505091850 | 63 | 203 | 3.5 | 7.8 | 0.00 | 0.00 | 0.00 | 67 | 1002.0 |
| 20260505091349 | 62 | 199 | 3.5 | 5.2 | 0.00 | 0.00 | 0.00 | 67 | 1002.0 |
| 20260505090853 | 63 | 170 | 2.6 | 3.5 | 0.01 | 0.00 | 0.00 | 66 | 1002.0 |
| 20260505090349 | 63 | 190 | 3.5 | 6.1 | 0.00 | 0.00 | 0.00 | 66 | 1002.0 |
| 20260505085850 | 63 | 193 | 2.6 | 5.2 | 0.00 | 0.00 | 0.00 | 67 | 1002.0 |
| 20260505085349 | 63 | 190 | 3.5 | 4.3 | 0.05 | 0.00 | 0.00 | 64 | 1002.0 |
| 20260505084849 | 63 | 159 | 2.6 | 4.3 | 0.00 | 0.00 | 0.00 | 64 | 1002.0 |
| 20260505084350 | 64 | 211 | 2.6 | 3.5 | 0.00 | 0.00 | 0.00 | 63 | 1002.0 |
| 20260505083849 | 64 | 192 | 5.2 | 7.0 | 0.00 | 0.00 | 0.00 | 62 | 1002.0 |
| 20260505083350 | 64 | 189 | 2.6 | 3.5 | 0.00 | 0.00 | 0.00 | 62 | 1002.0 |
| 20260505082849 | 64 | 193 | 2.6 | 5.2 | 0.00 | 0.00 | 0.00 | 61 | 1003.0 |
| 20260505082349 | 63 | 210 | 3.5 | 5.2 | 0.00 | 0.00 | 0.00 | 61 | 1003.0 |
| 20260505081849 | 63 | 195 | 2.6 | 4.3 | 0.00 | 0.00 | 0.00 | 61 | 1003.0 |
| 20260505081349 | 63 | 200 | 3.5 | 5.2 | 0.00 | 0.00 | 0.00 | 61 | 1003.0 |
| 20260505080849 | 64 | 183 | 2.6 | 4.3 | 0.00 | 0.00 | 0.00 | 60 | 1003.0 |
| 20260505080349 | 64 | 199 | 3.5 | 4.3 | 0.00 | 0.00 | 0.00 | 59 | 1003.0 |
| 20260505075850 | 63 | 191 | 3.5 | 5.2 | 0.00 | 0.00 | 0.00 | 59 | 1003.0 |
| 20260505075349 | 63 | 183 | 2.6 | 3.5 | 0.00 | 0.00 | 0.00 | 59 | 1003.0 |
| 20260505074850 | 63 | 206 | 2.6 | 5.2 | 0.00 | 0.00 | 0.00 | 58 | 1003.0 |
| 20260505074349 | 63 | 184 | 2.6 | 5.2 | 0.00 | 0.00 | 0.00 | 58 | 1003.0 |
| 20260505073849 | 63 | 194 | 2.6 | 4.3 | 0.00 | 0.00 | 0.00 | 57 | 1003.0 |
| 20260505073349 | 63 | 190 | 3.5 | 7.0 | 0.00 | 0.00 | 0.00 | 57 | 1003.0 |
| 20260505072850 | 63 | 198 | 3.5 | 5.2 | 0.00 | 0.00 | 0.00 | 57 | 1003.0 |
| 20260505072349 | 63 | 182 | 3.5 | 7.8 | 0.00 | 0.00 | 0.00 | 57 | 1003.0 |
| 20260505071849 | 63 | 184 | 4.3 | 6.1 | 0.00 | 0.00 | 0.00 | 57 | 1003.0 |
| 20260505071350 | 63 | 189 | 1.7 | 2.6 | 0.00 | 0.00 | 0.00 | 57 | 1003.0 |
| 20260505070850 | 63 | 194 | 3.5 | 4.3 | 0.00 | 0.00 | 0.00 | 56 | 1003.0 |
| 20260505070350 | 64 | 175 | 3.5 | 5.2 | 0.00 | 0.00 | 0.00 | 55 | 1002.0 |
| 20260505065850 | 64 | 175 | 3.5 | 4.3 | 0.00 | 0.00 | 0.00 | 55 | 1002.0 |
| 20260505065349 | 64 | 171 | 4.3 | 7.8 | 0.00 | 0.00 | 0.00 | 55 | 1002.0 |
| 20260505064849 | 64 | 188 | 4.3 | 7.0 | 0.00 | 0.00 | 0.00 | 54 | 1002.0 |
| 20260505064349 | 64 | 197 | 5.2 | 7.8 | 0.00 | 0.00 | 0.00 | 54 | 1002.0 |
| 20260505063849 | 64 | 188 | 4.3 | 9.6 | 0.00 | 0.00 | 0.00 | 54 | 1002.0 |
| 20260505063349 | 64 | 191 | 3.5 | 4.3 | 0.00 | 0.00 | 0.00 | 52 | 1002.0 |
| 20260505062849 | 64 | 196 | 3.5 | 6.1 | 0.00 | 0.00 | 0.00 | 53 | 1002.0 |
| 20260505062350 | 64 | 205 | 2.6 | 4.3 | 0.00 | 0.00 | 0.00 | 53 | 1002.0 |
| 20260505061849 | 63 | 193 | 3.5 | 5.2 | 0.00 | 0.00 | 0.00 | 53 | 1002.0 |
| 20260505061349 | 63 | 176 | 2.6 | 3.5 | 0.00 | 0.00 | 0.00 | 54 | 1002.0 |
| 20260505060849 | 63 | 170 | 2.6 | 4.3 | 0.00 | 0.00 | 0.00 | 53 | 1002.0 |
| 20260505060349 | 63 | 182 | 2.6 | 4.3 | 0.00 | 0.00 | 0.00 | 53 | 1002.0 |
| 20260505055851 | 63 | 179 | 2.6 | 3.5 | 0.00 | 0.00 | 0.00 | 53 | 1002.0 |
| 20260505055349 | 63 | 192 | 3.5 | 5.2 | 0.00 | 0.00 | 0.00 | 51 | 1002.0 |
| 20260505054849 | 63 | 174 | 4.3 | 6.1 | 0.00 | 0.00 | 0.00 | 51 | 1003.0 |
| 20260505054349 | 64 | 192 | 2.6 | 4.3 | 0.00 | 0.00 | 0.00 | 52 | 1003.0 |
| 20260505053855 | 64 | 209 | 2.6 | 3.5 | 0.00 | 0.00 | 0.00 | 51 | 1003.0 |
| 20260505053349 | 64 | 205 | 3.5 | 5.2 | 0.00 | 0.00 | 0.00 | 51 | 1003.0 |
| 20260505052849 | 63 | 226 | 5.2 | 7.0 | 0.00 | 0.00 | 0.00 | 51 | 1003.0 |
| 20260505052350 | 63 | 188 | 3.5 | 5.2 | 0.00 | 0.00 | 0.00 | 51 | 1003.0 |
| 20260505051849 | 63 | 191 | 3.5 | 6.1 | 0.00 | 0.00 | 0.00 | 50 | 1003.0 |
| 20260505051350 | 63 | 206 | 1.7 | 4.3 | 0.00 | 0.00 | 0.00 | 51 | 1003.0 |
| 20260505050849 | 63 | 204 | 1.7 | 2.6 | 0.00 | 0.00 | 0.00 | 50 | 1003.0 |
| 20260505050349 | 63 | 179 | 1.7 | 3.5 | 0.00 | 0.00 | 0.00 | 50 | 1003.0 |
| 20260505041350 | 60 | 179 | 2.6 | 3.5 | 0.00 | 0.00 | 0.00 | 53 | 1003.0 |
| 20260505040849 | 59 | 164 | 3.5 | 4.3 | 0.00 | 0.00 | 0.00 | 54 | 1003.0 |
| 20260505040350 | 58 | 160 | 2.6 | 4.3 | 0.00 | 0.00 | 0.00 | 57 | 1003.0 |
| 20260505035850 | 57 | 156 | 2.6 | 4.3 | 0.00 | 0.00 | 0.05 | 58 | 1003.0 |
| 20260505035351 | 57 | 165 | 0.0 | 1.7 | 0.00 | 0.00 | 0.05 | 59 | 1003.0 |
| 20260505034849 | 56 | 0 | 0.0 | 0.0 | 0.00 | 0.00 | 0.05 | 61 | 1003.0 |
| 20260505034350 | 56 | 149 | 0.9 | 1.7 | 0.00 | 0.00 | 0.05 | 61 | 1003.0 |
| 20260505033850 | 55 | 151 | 0.9 | 2.6 | 0.00 | 0.00 | 0.05 | 64 | 1003.0 |
| 20260505033353 | 55 | 148 | 0.0 | 1.7 | 0.00 | 0.00 | 0.05 | 65 | 1003.0 |
| 20260505032849 | 55 | 148 | 0.0 | 1.7 | 0.00 | 0.00 | 0.05 | 64 | 1003.0 |
| 20260505032350 | 55 | 161 | 1.7 | 1.7 | 0.00 | 0.00 | 0.05 | 66 | 1003.0 |
| 20260505031849 | 54 | 150 | 1.7 | 1.7 | 0.00 | 0.00 | 0.05 | 67 | 1003.0 |
| 20260505031349 | 53 | 164 | 1.7 | 2.6 | 0.00 | 0.00 | 0.05 | 71 | 1003.0 |
| 20260505030849 | 53 | 128 | 1.7 | 1.7 | 0.00 | 0.00 | 0.05 | 74 | 1003.0 |
| 20260505030349 | 53 | 137 | 1.7 | 3.5 | 0.00 | 0.00 | 0.05 | 73 | 1003.0 |
| 20260505025849 | 53 | 125 | 2.6 | 2.6 | 0.00 | 0.00 | 0.05 | 73 | 1003.0 |
| 20260505025349 | 53 | 117 | 1.7 | 3.5 | 0.00 | 0.00 | 0.05 | 71 | 1003.0 |
| 20260505024852 | 53 | 133 | 0.9 | 1.7 | 0.00 | 0.00 | 0.05 | 75 | 1003.0 |
| 20260505024350 | 54 | 120 | 3.5 | 4.3 | 0.00 | 0.00 | 0.05 | 72 | 1003.0 |
| 20260505023850 | 54 | 124 | 3.5 | 4.3 | 0.00 | 0.00 | 0.05 | 72 | 1003.0 |
| 20260505023349 | 54 | 125 | 2.6 | 3.5 | 0.00 | 0.00 | 0.05 | 70 | 1003.0 |
| 20260505022849 | 54 | 125 | 3.5 | 3.5 | 0.00 | 0.00 | 0.05 | 72 | 1003.0 |
| 20260505022349 | 55 | 128 | 2.6 | 3.5 | 0.00 | 0.00 | 0.05 | 69 | 1003.0 |
| 20260505021853 | 55 | 133 | 1.7 | 2.6 | 0.00 | 0.00 | 0.05 | 68 | 1003.0 |
| 20260505021350 | 56 | 135 | 1.7 | 2.6 | 0.00 | 0.00 | 0.05 | 66 | 1003.0 |
| 20260505020849 | 55 | 121 | 1.7 | 3.5 | 0.00 | 0.00 | 0.05 | 66 | 1003.0 |
| 20260505020349 | 56 | 132 | 2.6 | 3.5 | 0.00 | 0.00 | 0.05 | 67 | 1003.0 |
| 20260505015849 | 56 | 128 | 0.9 | 1.7 | 0.00 | 0.00 | 0.05 | 65 | 1003.0 |
| 20260505015350 | 55 | 121 | 2.6 | 3.5 | 0.00 | 0.00 | 0.05 | 67 | 1003.0 |
| 20260505014849 | 55 | 121 | 1.7 | 2.6 | 0.00 | 0.00 | 0.05 | 69 | 1004.0 |
| 20260505014349 | 56 | 122 | 2.6 | 3.5 | 0.00 | 0.00 | 0.05 | 67 | 1004.0 |
| 20260505013849 | 56 | 128 | 1.7 | 1.7 | 0.00 | 0.00 | 0.05 | 66 | 1004.0 |
| 20260505013352 | 56 | 128 | 1.7 | 1.7 | 0.00 | 0.00 | 0.05 | 67 | 1004.0 |
| 20260505012850 | 57 | 126 | 1.7 | 2.6 | 0.00 | 0.00 | 0.05 | 68 | 1004.0 |
| 20260505012351 | 57 | 130 | 2.6 | 3.5 | 0.00 | 0.00 | 0.05 | 67 | 1004.0 |
| 20260505011850 | 58 | 128 | 0.9 | 1.7 | 0.00 | 0.00 | 0.05 | 66 | 1004.0 |
| 20260505011350 | 58 | 78 | 0.0 | 0.9 | 0.00 | 0.00 | 0.05 | 65 | 1004.0 |
| 20260505010850 | 58 | 0 | 0.0 | 0.0 | 0.00 | 0.00 | 0.05 | 65 | 1004.0 |
| 20260505010350 | 59 | 345 | 0.9 | 1.7 | 0.00 | 0.00 | 0.05 | 66 | 1004.0 |
| 20260505005849 | 60 | 338 | 0.9 | 1.7 | 0.00 | 0.00 | 0.05 | 62 | 1004.0 |
| 20260505005350 | 61 | 139 | 0.0 | 0.0 | 0.00 | 0.00 | 0.05 | 56 | 1003.0 |
| 20260505004851 | 62 | 159 | 0.9 | 1.7 | 0.00 | 0.00 | 0.05 | 55 | 1003.0 |
| 20260505004350 | 63 | 132 | 0.0 | 1.7 | 0.00 | 0.00 | 0.05 | 52 | 1003.0 |
| 20260505003850 | 63 | 161 | 0.9 | 1.7 | 0.00 | 0.00 | 0.05 | 51 | 1003.0 |
| 20260505003350 | 63 | 156 | 0.9 | 1.7 | 0.00 | 0.00 | 0.05 | 52 | 1003.0 |
| 20260505002849 | 63 | 149 | 0.9 | 1.7 | 0.00 | 0.00 | 0.05 | 53 | 1003.0 |
| 20260505002350 | 64 | 156 | 1.7 | 1.7 | 0.00 | 0.00 | 0.05 | 52 | 1003.0 |
| 20260505001850 | 65 | 165 | 0.9 | 1.7 | 0.00 | 0.00 | 0.05 | 49 | 1003.0 |
| 20260505001350 | 65 | 0 | 0.0 | 0.0 | 0.00 | 0.00 | 0.05 | 49 | 1003.0 |
| 20260505000849 | 65 | 176 | 0.0 | 0.9 | 0.00 | 0.00 | 0.05 | 48 | 1003.0 |
| 20260505000351 | 66 | 184 | 0.0 | 0.9 | 0.00 | 0.00 | 0.05 | 48 | 1003.0 |
| 20260504235850 | 66 | 0 | 0.0 | 0.0 | 0.00 | 0.00 | 0.05 | 47 | 1003.0 |
| 20260504235349 | 67 | 0 | 0.0 | 0.0 | 0.00 | 0.00 | 0.05 | 47 | 1003.0 |
| 20260504234850 | 67 | 0 | 0.0 | 0.0 | 0.00 | 0.00 | 0.05 | 46 | 1003.0 |
| 20260504234349 | 67 | 0 | 0.0 | 0.0 | 0.00 | 0.00 | 0.05 | 46 | 1003.0 |
| 20260504233850 | 67 | 191 | 0.9 | 2.6 | 0.00 | 0.00 | 0.05 | 46 | 1003.0 |
| 20260504233350 | 67 | 181 | 0.0 | 0.9 | 0.00 | 0.00 | 0.05 | 46 | 1003.0 |
| 20260504232850 | 67 | 190 | 0.9 | 1.7 | 0.00 | 0.00 | 0.05 | 45 | 1003.0 |
| 20260504232349 | 68 | 180 | 0.9 | 2.6 | 0.00 | 0.00 | 0.05 | 46 | 1003.0 |
| 20260504231850 | 68 | 226 | 0.9 | 1.7 | 0.00 | 0.00 | 0.05 | 46 | 1003.0 |
| 20260504231349 | 68 | 210 | 0.9 | 1.7 | 0.00 | 0.00 | 0.05 | 46 | 1003.0 |
| 20260504230850 | 69 | 208 | 0.9 | 2.6 | 0.00 | 0.00 | 0.05 | 45 | 1003.0 |
| 20260504230349 | 69 | 218 | 1.7 | 2.6 | 0.00 | 0.00 | 0.05 | 45 | 1003.0 |
| 20260504225849 | 70 | 239 | 4.3 | 7.0 | 0.00 | 0.00 | 0.05 | 44 | 1003.0 |
| 20260504225349 | 70 | 230 | 3.5 | 5.2 | 0.00 | 0.00 | 0.05 | 44 | 1003.0 |
| 20260504224850 | 70 | 211 | 1.7 | 4.3 | 0.00 | 0.00 | 0.05 | 45 | 1003.0 |
| 20260504224350 | 70 | 246 | 3.5 | 4.3 | 0.00 | 0.00 | 0.05 | 45 | 1003.0 |
| 20260504223849 | 70 | 229 | 2.6 | 5.2 | 0.00 | 0.00 | 0.05 | 45 | 1003.0 |
| 20260504223350 | 70 | 240 | 2.6 | 3.5 | 0.00 | 0.00 | 0.05 | 46 | 1003.0 |
| 20260504222850 | 70 | 257 | 3.5 | 5.2 | 0.00 | 0.00 | 0.05 | 46 | 1003.0 |
| 20260504222349 | 70 | 254 | 3.5 | 4.3 | 0.00 | 0.00 | 0.05 | 46 | 1003.0 |
| 20260504221850 | 69 | 242 | 4.3 | 7.8 | 0.00 | 0.00 | 0.05 | 45 | 1003.0 |
| 20260504221350 | 70 | 236 | 3.5 | 6.1 | 0.00 | 0.00 | 0.05 | 45 | 1003.0 |
| 20260504220850 | 70 | 234 | 3.5 | 5.2 | 0.00 | 0.00 | 0.05 | 46 | 1003.0 |
| 20260504220350 | 69 | 251 | 5.2 | 7.8 | 0.00 | 0.00 | 0.05 | 46 | 1003.0 |
| 20260504215849 | 70 | 252 | 7.0 | 8.7 | 0.00 | 0.00 | 0.05 | 45 | 1003.0 |
| 20260504215350 | 70 | 233 | 4.3 | 5.2 | 0.00 | 0.00 | 0.05 | 45 | 1004.0 |
| 20260504214850 | 70 | 236 | 4.3 | 6.1 | 0.00 | 0.00 | 0.05 | 44 | 1004.0 |
| 20260504214350 | 70 | 246 | 4.3 | 7.8 | 0.00 | 0.00 | 0.05 | 46 | 1004.0 |
| 20260504213849 | 70 | 248 | 7.0 | 7.8 | 0.00 | 0.00 | 0.05 | 46 | 1004.0 |
| 20260504213349 | 69 | 246 | 6.1 | 7.0 | 0.00 | 0.00 | 0.05 | 47 | 1004.0 |
| 20260504212849 | 70 | 244 | 7.0 | 10.4 | 0.00 | 0.00 | 0.05 | 45 | 1004.0 |
| 20260504212349 | 70 | 252 | 7.0 | 8.7 | 0.00 | 0.00 | 0.05 | 45 | 1004.0 |
| 20260504211850 | 70 | 242 | 6.1 | 9.6 | 0.00 | 0.00 | 0.05 | 45 | 1004.0 |
| 20260504211350 | 69 | 247 | 7.0 | 9.6 | 0.00 | 0.00 | 0.05 | 46 | 1004.0 |
| 20260504210850 | 70 | 235 | 4.3 | 6.1 | 0.00 | 0.00 | 0.05 | 45 | 1004.0 |
| 20260504210350 | 70 | 249 | 7.0 | 7.8 | 0.00 | 0.00 | 0.05 | 46 | 1004.0 |
| 20260504205849 | 70 | 233 | 5.2 | 7.8 | 0.00 | 0.00 | 0.05 | 47 | 1004.0 |
| 20260504205350 | 69 | 237 | 7.0 | 8.7 | 0.00 | 0.00 | 0.05 | 45 | 1004.0 |
| 20260504204849 | 69 | 231 | 6.1 | 9.6 | 0.00 | 0.00 | 0.05 | 46 | 1004.0 |
| 20260504204350 | 69 | 240 | 5.2 | 7.8 | 0.00 | 0.00 | 0.05 | 48 | 1004.0 |
| 20260504203850 | 69 | 252 | 7.8 | 11.3 | 0.00 | 0.00 | 0.05 | 48 | 1004.0 |
| 20260504203350 | 69 | 237 | 7.0 | 8.7 | 0.00 | 0.00 | 0.05 | 47 | 1004.0 |
| 20260504202849 | 69 | 251 | 6.1 | 9.6 | 0.00 | 0.00 | 0.05 | 47 | 1004.0 |
| 20260504202350 | 69 | 234 | 7.0 | 8.7 | 0.00 | 0.00 | 0.05 | 46 | 1004.0 |
| 20260504201850 | 69 | 250 | 8.7 | 9.6 | 0.00 | 0.00 | 0.05 | 47 | 1004.0 |
| 20260504201350 | 69 | 245 | 8.7 | 10.4 | 0.00 | 0.00 | 0.05 | 47 | 1004.0 |
| 20260504200849 | 70 | 211 | 4.3 | 7.0 | 0.00 | 0.00 | 0.05 | 46 | 1004.0 |
| 20260504200350 | 69 | 229 | 5.2 | 8.7 | 0.00 | 0.00 | 0.05 | 48 | 1004.0 |
| 20260504195850 | 69 | 235 | 7.8 | 11.3 | 0.00 | 0.00 | 0.05 | 47 | 1004.0 |
| 20260504195350 | 69 | 232 | 5.2 | 7.0 | 0.00 | 0.00 | 0.05 | 47 | 1004.0 |
| 20260504194849 | 69 | 220 | 4.3 | 7.8 | 0.00 | 0.00 | 0.05 | 47 | 1004.0 |
| 20260504194351 | 69 | 246 | 4.3 | 6.1 | 0.00 | 0.00 | 0.05 | 49 | 1004.0 |
| 20260504193850 | 68 | 240 | 7.0 | 9.6 | 0.00 | 0.00 | 0.05 | 48 | 1004.0 |
| 20260504193349 | 69 | 243 | 7.0 | 10.4 | 0.00 | 0.00 | 0.05 | 48 | 1004.0 |
| 20260504192850 | 69 | 250 | 7.8 | 9.6 | 0.00 | 0.00 | 0.05 | 47 | 1004.0 |
| 20260504192350 | 68 | 253 | 7.0 | 12.2 | 0.00 | 0.00 | 0.05 | 48 | 1004.0 |
| 20260504191850 | 68 | 229 | 3.5 | 7.0 | 0.00 | 0.00 | 0.05 | 48 | 1005.0 |
| 20260504191350 | 68 | 241 | 3.5 | 5.2 | 0.00 | 0.00 | 0.05 | 50 | 1005.0 |
| 20260504190850 | 68 | 223 | 4.3 | 6.1 | 0.00 | 0.00 | 0.05 | 48 | 1005.0 |
| 20260504190350 | 67 | 226 | 4.3 | 8.7 | 0.00 | 0.00 | 0.05 | 49 | 1005.0 |
| 20260504185852 | 67 | 246 | 7.8 | 11.3 | 0.00 | 0.00 | 0.05 | 48 | 1005.0 |
| 20260504185349 | 67 | 242 | 5.2 | 7.0 | 0.00 | 0.00 | 0.05 | 49 | 1005.0 |
| 20260504184850 | 67 | 240 | 7.8 | 9.6 | 0.00 | 0.00 | 0.05 | 49 | 1005.0 |
| 20260504184350 | 67 | 208 | 3.5 | 5.2 | 0.00 | 0.00 | 0.05 | 50 | 1005.0 |
| 20260504183849 | 66 | 245 | 6.1 | 9.6 | 0.00 | 0.00 | 0.05 | 50 | 1005.0 |
| 20260504183351 | 66 | 255 | 7.0 | 7.8 | 0.00 | 0.00 | 0.05 | 49 | 1005.0 |
| 20260504182849 | 66 | 237 | 5.2 | 7.0 | 0.00 | 0.00 | 0.05 | 50 | 1005.0 |
| 20260504182353 | 66 | 216 | 3.5 | 8.7 | 0.00 | 0.00 | 0.05 | 51 | 1005.0 |
| 20260504181850 | 66 | 234 | 5.2 | 7.8 | 0.00 | 0.00 | 0.05 | 50 | 1005.0 |
| 20260504181352 | 66 | 244 | 5.2 | 7.8 | 0.00 | 0.00 | 0.05 | 48 | 1005.0 |
| 20260504180849 | 65 | 229 | 4.3 | 7.8 | 0.00 | 0.00 | 0.05 | 51 | 1005.0 |
| 20260504180350 | 65 | 243 | 8.7 | 11.3 | 0.00 | 0.00 | 0.05 | 50 | 1005.0 |
| 20260504175850 | 65 | 216 | 3.5 | 6.1 | 0.00 | 0.00 | 0.05 | 49 | 1005.0 |
| 20260504175349 | 65 | 236 | 6.1 | 7.8 | 0.00 | 0.00 | 0.05 | 50 | 1005.0 |
| 20260504174850 | 65 | 234 | 5.2 | 7.0 | 0.00 | 0.00 | 0.05 | 51 | 1005.0 |
| 20260504174350 | 64 | 238 | 6.1 | 9.6 | 0.00 | 0.00 | 0.05 | 50 | 1005.0 |
| 20260504173849 | 65 | 239 | 6.1 | 7.8 | 0.00 | 0.00 | 0.05 | 50 | 1005.0 |
| 20260504173350 | 65 | 205 | 3.5 | 5.2 | 0.00 | 0.00 | 0.05 | 50 | 1005.0 |
| 20260504172850 | 64 | 234 | 3.5 | 5.2 | 0.00 | 0.00 | 0.05 | 51 | 1005.0 |
| 20260504172349 | 64 | 214 | 3.5 | 5.2 | 0.00 | 0.00 | 0.05 | 51 | 1006.0 |
| 20260504171850 | 64 | 255 | 6.1 | 7.8 | 0.00 | 0.00 | 0.05 | 53 | 1006.0 |
| 20260504171350 | 63 | 239 | 7.0 | 7.8 | 0.00 | 0.00 | 0.05 | 51 | 1006.0 |
| 20260504170851 | 63 | 258 | 7.8 | 11.3 | 0.00 | 0.00 | 0.05 | 51 | 1006.0 |
| 20260504170349 | 63 | 261 | 7.0 | 9.6 | 0.00 | 0.00 | 0.05 | 51 | 1005.0 |
| 20260504160350 | 62 | 237 | 7.0 | 9.6 | 0.00 | 0.00 | 0.05 | 52 | 1006.0 |
| 20260504150851 | 60 | 233 | 7.0 | 11.3 | 0.00 | 0.00 | 0.05 | 54 | 1006.0 |
| 20260504150349 | 60 | 232 | 5.2 | 7.8 | 0.00 | 0.00 | 0.05 | 55 | 1006.0 |
| 20260504140849 | 56 | 233 | 5.2 | 7.8 | 0.00 | 0.00 | 0.05 | 58 | 1006.0 |
| 20260504140349 | 56 | 214 | 3.5 | 5.2 | 0.00 | 0.00 | 0.05 | 57 | 1006.0 |
| 20260504130352 | 51 | 205 | 2.6 | 3.5 | 0.00 | 0.00 | 0.05 | 65 | 1007.0 |
| 20260504110349 | 50 | 196 | 2.6 | 4.3 | 0.00 | 0.00 | 0.04 | 66 | 1007.0 |
| 20260504100350 | 49 | 183 | 1.7 | 4.3 | 0.00 | 0.00 | 0.04 | 67 | 1006.0 |